| time (UTC) | temp C | wind direction | speed KPH | gust KPH | rain 1hr cm | rain 24hr cm | rain mn cm | humidity % | barometer mb |
| 20260507014931 | 1 | 0.0 | 0.0 | 0.00 | 2.41 | 0.00 | 99 | 1008.0 | |
| 20260507013923 | 0 | 0.0 | 0.0 | 0.00 | 2.41 | 0.00 | 99 | 1007.7 | |
| 20260507012931 | 0 | 0.0 | 0.0 | 0.00 | 2.41 | 0.00 | 99 | 1007.9 | |
| 20260507011923 | 0 | 0.0 | 0.0 | 0.00 | 2.41 | 0.00 | 99 | 1007.6 | |
| 20260507011011 | 0 | 0.0 | 0.0 | 0.00 | 2.41 | 0.00 | 99 | 1007.9 | |
| 20260507005923 | 0 | 0.0 | 0.0 | 0.00 | 2.41 | 0.00 | 99 | 1007.6 | |
| 20260507004942 | 0 | 0.0 | 0.0 | 0.00 | 2.41 | 0.00 | 99 | 1007.6 | |
| 20260507003943 | 0 | 0.0 | 0.0 | 0.00 | 2.41 | 0.00 | 99 | 1007.6 | |
| 20260507002931 | 0 | 0.0 | 0.0 | 0.00 | 2.41 | 0.00 | 99 | 1007.6 | |
| 20260507001922 | 0 | 0.0 | 0.0 | 0.00 | 2.41 | 0.00 | 99 | 1007.6 | |
| 20260507000931 | 0 | 0.0 | 0.0 | 0.00 | 2.41 | 0.00 | 99 | 1008.0 | |
| 20260506235923 | 0 | 0.0 | 0.0 | 0.00 | 2.41 | 0.00 | 99 | 1007.6 | |
| 20260506234931 | 0 | 0.0 | 0.0 | 0.00 | 2.41 | 0.00 | 99 | 1007.9 | |
| 20260506233923 | 0 | 0.0 | 0.0 | 0.00 | 2.41 | 0.00 | 99 | 1007.9 | |
| 20260506232942 | 0 | 0.0 | 0.0 | 0.00 | 2.41 | 0.00 | 99 | 1008.0 | |
| 20260506231922 | 0 | 0.0 | 0.0 | 0.00 | 2.41 | 0.00 | 99 | 1008.0 | |
| 20260506230931 | 0 | 0.0 | 0.0 | 0.00 | 2.41 | 0.00 | 99 | 1008.0 | |
| 20260506225922 | 0 | 0.0 | 0.0 | 0.00 | 2.41 | 0.00 | 99 | 1008.0 | |
| 20260506224930 | 1 | 0.0 | 0.0 | 0.00 | 2.41 | 0.00 | 99 | 1008.0 | |
| 20260506223942 | 1 | 0.0 | 0.0 | 0.00 | 2.41 | 0.00 | 99 | 1008.0 | |
| 20260506222930 | 1 | 0.0 | 0.0 | 0.00 | 2.41 | 0.00 | 99 | 1008.0 | |
| 20260506221922 | 1 | 0.0 | 0.0 | 0.00 | 2.41 | 0.00 | 99 | 1007.7 | |
| 20260506220921 | 1 | 0.0 | 0.0 | 0.00 | 2.41 | 0.00 | 99 | 1008.0 | |
| 20260506215943 | 1 | 0.0 | 0.0 | 0.00 | 2.41 | 2.41 | 99 | 1007.6 | |
| 20260506214930 | 1 | 0.0 | 0.0 | 0.00 | 2.41 | 2.41 | 99 | 1007.6 | |
| 20260506214002 | 1 | 0.0 | 0.0 | 0.00 | 2.41 | 2.41 | 99 | 1007.6 | |
| 20260506212931 | 1 | 0.0 | 0.0 | 0.00 | 2.41 | 2.41 | 99 | 1007.6 | |
| 20260506211922 | 1 | 0.0 | 0.0 | 0.00 | 2.41 | 2.41 | 99 | 1008.0 | |
| 20260506210930 | 1 | 0.0 | 0.0 | 0.00 | 2.41 | 2.41 | 99 | 1007.9 | |
| 20260506205923 | 1 | 0.0 | 0.0 | 0.00 | 2.41 | 2.41 | 99 | 1007.6 | |
| 20260506204940 | 1 | 0.0 | 0.0 | 0.00 | 2.41 | 2.41 | 99 | 1007.9 | |
| 20260506203922 | 1 | 0.0 | 0.0 | 0.00 | 2.41 | 2.41 | 99 | 1007.6 | |
| 20260506202950 | 1 | 0.0 | 0.0 | 0.00 | 2.41 | 2.41 | 99 | 1007.6 | |
| 20260506201922 | 1 | 0.0 | 0.0 | 0.00 | 2.41 | 2.41 | 99 | 1007.6 | |
| 20260506200929 | 1 | 0.0 | 0.0 | 0.00 | 2.41 | 2.41 | 99 | 1007.6 | |
| 20260506195942 | 1 | 0.0 | 0.0 | 0.00 | 2.41 | 2.41 | 99 | 1007.2 | |
| 20260506194951 | 1 | 0.0 | 0.0 | 0.00 | 2.41 | 2.41 | 99 | 1007.4 | |
| 20260506193922 | 1 | 0.0 | 0.0 | 0.00 | 2.41 | 2.41 | 99 | 1007.2 | |
| 20260506192921 | 1 | 0.0 | 0.0 | 0.00 | 2.41 | 2.41 | 99 | 1007.1 | |
| 20260506191922 | 1 | 0.0 | 0.0 | 0.00 | 2.41 | 2.41 | 99 | 1006.8 | |
| 20260506190930 | 1 | 0.0 | 0.0 | 0.00 | 2.41 | 2.41 | 99 | 1006.8 | |
| 20260506185942 | 1 | 0.0 | 0.0 | 0.00 | 2.41 | 2.41 | 99 | 1006.4 | |
| 20260506184930 | 1 | 0.0 | 0.0 | 0.00 | 2.41 | 2.41 | 99 | 1006.4 | |
| 20260506183922 | 1 | 0.0 | 0.0 | 0.00 | 2.41 | 2.41 | 99 | 1006.0 | |
| 20260506182950 | 1 | 0.0 | 0.0 | 0.00 | 2.41 | 2.41 | 99 | 1006.2 | |
| 20260506181922 | 1 | 0.0 | 0.0 | 0.00 | 2.41 | 2.41 | 99 | 1006.4 | |
| 20260506180921 | 1 | 0.0 | 0.0 | 0.00 | 2.41 | 2.41 | 99 | 1006.3 | |
| 20260506175922 | 1 | 0.0 | 0.0 | 0.00 | 2.41 | 2.41 | 99 | 1006.0 | |
| 20260506174930 | 1 | 0.0 | 0.0 | 0.00 | 2.41 | 2.41 | 99 | 1006.0 | |
| 20260506173922 | 1 | 0.0 | 0.0 | 0.08 | 2.41 | 2.41 | 99 | 1006.0 | |
| 20260506172950 | 2 | 0.0 | 0.0 | 0.08 | 2.41 | 2.41 | 99 | 1006.2 | |
| 20260506171942 | 3 | 329 | 3.2 | 8.0 | 0.13 | 2.41 | 2.41 | 99 | 1006.4 |
| 20260506170930 | 5 | 322 | 6.4 | 16.1 | 0.30 | 2.41 | 2.41 | 99 | 1006.0 |
| 20260506165922 | 5 | 0.0 | 0.0 | 0.58 | 2.41 | 2.41 | 94 | 1005.9 | |
| 20260506164921 | 5 | 0.0 | 0.0 | 1.02 | 2.41 | 2.41 | 83 | 1005.7 | |
| 20260506163922 | 5 | 0.0 | 0.0 | 1.40 | 2.34 | 2.34 | 91 | 1005.8 | |
| 20260506162950 | 5 | 0.0 | 0.0 | 1.68 | 2.34 | 2.34 | 88 | 1005.6 | |
| 20260506161922 | 5 | 0.0 | 0.0 | 1.83 | 2.29 | 2.29 | 94 | 1006.0 | |
| 20260506160950 | 6 | 0.0 | 0.0 | 1.78 | 2.11 | 2.11 | 86 | 1005.8 | |
| 20260506155922 | 7 | 0.0 | 0.0 | 1.55 | 1.83 | 1.83 | 85 | 1005.6 | |
| 20260506154930 | 7 | 0.0 | 0.0 | 1.12 | 1.40 | 1.40 | 83 | 1005.6 | |
| 20260506153922 | 7 | 0.0 | 0.0 | 0.66 | 0.94 | 0.94 | 85 | 1005.3 | |
| 20260506152921 | 7 | 0.0 | 0.0 | 0.38 | 0.66 | 0.66 | 86 | 1005.2 | |
| 20260506151922 | 5 | 0.0 | 0.0 | 0.18 | 0.46 | 0.46 | 73 | 1005.2 | |
| 20260506150930 | 3 | 0.0 | 0.0 | 0.05 | 0.33 | 0.33 | 87 | 1005.2 | |
| 20260506145922 | 2 | 0.0 | 0.0 | 0.00 | 0.28 | 0.28 | 94 | 1005.2 | |
| 20260506144930 | 2 | 0.0 | 0.0 | 0.00 | 0.28 | 0.28 | 96 | 1005.2 | |
| 20260506143922 | 2 | 0.0 | 0.0 | 0.00 | 0.28 | 0.28 | 97 | 1005.2 | |
| 20260506142930 | 2 | 0.0 | 0.0 | 0.00 | 0.28 | 0.28 | 98 | 1005.6 | |
| 20260506141922 | 2 | 0.0 | 0.0 | 0.00 | 0.28 | 0.28 | 99 | 1005.7 | |
| 20260506140921 | 1 | 0.0 | 0.0 | 0.00 | 0.28 | 0.28 | 99 | 1005.6 | |
| 20260506135922 | 1 | 0.0 | 0.0 | 0.00 | 0.28 | 0.28 | 99 | 1005.6 | |
| 20260506134930 | 0 | 0.0 | 0.0 | 0.00 | 0.28 | 0.28 | 99 | 1006.0 | |
| 20260506133922 | 0 | 0.0 | 0.0 | 0.00 | 0.28 | 0.28 | 99 | 1006.0 | |
| 20260506132950 | 0 | 0.0 | 0.0 | 0.00 | 0.28 | 0.28 | 99 | 1006.0 | |
| 20260506131921 | 0 | 0.0 | 0.0 | 0.00 | 0.28 | 0.28 | 99 | 1005.6 | |
| 20260506130930 | 0 | 0.0 | 0.0 | 0.00 | 0.28 | 0.28 | 99 | 1005.8 | |
| 20260506125922 | 0 | 0.0 | 0.0 | 0.00 | 0.28 | 0.28 | 99 | 1005.6 | |
| 20260506124930 | 0 | 0.0 | 0.0 | 0.00 | 0.28 | 0.28 | 99 | 1005.2 | |
| 20260506123922 | 0 | 0.0 | 0.0 | 0.00 | 0.28 | 0.28 | 99 | 1004.8 | |
| 20260506122930 | 0 | 0.0 | 0.0 | 0.00 | 0.28 | 0.28 | 99 | 1004.8 | |
| 20260506121942 | 0 | 0.0 | 0.0 | 0.00 | 0.28 | 0.28 | 99 | 1004.8 | |
| 20260506120950 | 0 | 0.0 | 0.0 | 0.00 | 0.28 | 0.28 | 99 | 1004.8 | |
| 20260506115922 | 0 | 0.0 | 0.0 | 0.00 | 0.28 | 0.28 | 99 | 1004.8 | |
| 20260506115010 | 0 | 0.0 | 0.0 | 0.00 | 0.28 | 0.28 | 99 | 1004.8 | |
| 20260506113922 | 0 | 0.0 | 0.0 | 0.00 | 0.28 | 0.28 | 99 | 1004.7 | |
| 20260506112930 | 0 | 0.0 | 0.0 | 0.00 | 0.28 | 0.28 | 99 | 1004.7 | |
| 20260506111922 | 0 | 0.0 | 0.0 | 0.00 | 0.28 | 0.28 | 99 | 1004.6 | |
| 20260506110930 | 0 | 0.0 | 0.0 | 0.00 | 0.28 | 0.28 | 99 | 1004.4 | |
| 20260506105922 | 0 | 0.0 | 0.0 | 0.00 | 0.28 | 0.28 | 99 | 1004.4 | |
| 20260506104929 | 0 | 0.0 | 0.0 | 0.00 | 0.28 | 0.28 | 99 | 1004.4 | |
| 20260506103922 | 0 | 0.0 | 0.0 | 0.00 | 0.28 | 0.28 | 99 | 1004.4 | |
| 20260506102949 | 0 | 0.0 | 0.0 | 0.00 | 0.28 | 0.28 | 99 | 1004.4 | |
| 20260506101942 | 0 | 0.0 | 0.0 | 0.00 | 0.28 | 0.28 | 99 | 1004.4 | |
| 20260506100921 | 1 | 0.0 | 0.0 | 0.00 | 0.28 | 0.28 | 99 | 1004.3 | |
| 20260506095922 | 1 | 0.0 | 0.0 | 0.00 | 0.28 | 0.28 | 99 | 1004.2 | |
| 20260506094929 | 1 | 0.0 | 0.0 | 0.00 | 0.28 | 0.28 | 99 | 1004.0 | |
| 20260506093921 | 1 | 0.0 | 0.0 | 0.00 | 0.28 | 0.28 | 99 | 1004.0 | |
| 20260506092930 | 1 | 0.0 | 0.0 | 0.00 | 0.28 | 0.28 | 99 | 1004.0 | |
| 20260506091921 | 1 | 0.0 | 0.0 | 0.03 | 0.28 | 0.28 | 99 | 1004.0 | |
| 20260506090930 | 1 | 0.0 | 0.0 | 0.05 | 0.28 | 0.28 | 99 | 1004.0 | |
| 20260506085922 | 2 | 0.0 | 0.0 | 0.05 | 0.28 | 0.28 | 99 | 1004.0 | |
| 20260506084929 | 2 | 0.0 | 0.0 | 0.05 | 0.28 | 0.28 | 99 | 1003.7 | |
| 20260506083921 | 1 | 0.0 | 0.0 | 0.05 | 0.28 | 0.28 | 99 | 1003.6 | |
| 20260506082929 | 1 | 0.0 | 0.0 | 0.05 | 0.28 | 0.28 | 99 | 1003.6 | |
| 20260506081942 | 1 | 0.0 | 0.0 | 0.10 | 0.25 | 0.25 | 99 | 1003.6 | |
| 20260506080930 | 1 | 0.0 | 0.0 | 0.10 | 0.23 | 0.23 | 99 | 1003.6 | |
| 20260506072921 | 2 | 0.0 | 0.0 | 0.23 | 0.23 | 0.23 | 99 | 1004.0 | |
| 20260506071921 | 2 | 0.0 | 0.0 | 0.15 | 0.15 | 0.15 | 99 | 1003.8 | |
| 20260506070929 | 3 | 0.0 | 0.0 | 0.13 | 0.13 | 0.13 | 99 | 1003.6 | |
| 20260506061921 | 4 | 0.0 | 0.0 | 0.00 | 0.03 | 0.00 | 91 | 1003.9 | |
| 20260506060921 | 4 | 0.0 | 0.0 | 0.00 | 0.03 | 0.00 | 90 | 1003.6 | |
| 20260506050929 | 4 | 0.0 | 0.0 | 0.00 | 0.08 | 0.00 | 90 | 1004.0 | |
| 20260506044921 | 4 | 0.0 | 0.0 | 0.00 | 0.08 | 0.00 | 88 | 1004.0 | |
| 20260506043921 | 4 | 0.0 | 0.0 | 0.00 | 0.08 | 0.00 | 85 | 1004.4 | |
| 20260506042929 | 3 | 0.0 | 0.0 | 0.00 | 0.08 | 0.00 | 86 | 1004.4 | |
| 20260506041921 | 3 | 0.0 | 0.0 | 0.00 | 0.08 | 0.00 | 87 | 1004.3 | |
| 20260506040929 | 3 | 0.0 | 0.0 | 0.00 | 0.08 | 0.00 | 88 | 1004.4 | |
| 20260506035921 | 3 | 0.0 | 0.0 | 0.00 | 0.08 | 0.00 | 88 | 1004.4 | |
| 20260506034929 | 3 | 0.0 | 0.0 | 0.00 | 0.08 | 0.00 | 86 | 1004.4 | |
| 20260506033921 | 3 | 0.0 | 0.0 | 0.00 | 0.08 | 0.00 | 88 | 1004.8 | |
| 20260506032921 | 3 | 0.0 | 0.0 | 0.00 | 0.08 | 0.00 | 88 | 1004.9 | |
| 20260506031921 | 3 | 0.0 | 0.0 | 0.00 | 0.08 | 0.00 | 92 | 1005.2 | |
| 20260506030929 | 3 | 0.0 | 0.0 | 0.00 | 0.08 | 0.00 | 90 | 1005.2 | |
| 20260506025923 | 3 | 0.0 | 0.0 | 0.00 | 0.08 | 0.00 | 91 | 1005.2 | |
| 20260506024929 | 3 | 0.0 | 0.0 | 0.00 | 0.08 | 0.00 | 93 | 1005.6 | |
| 20260506023941 | 3 | 0.0 | 0.0 | 0.00 | 0.08 | 0.00 | 94 | 1005.6 | |
| 20260506022929 | 3 | 0.0 | 0.0 | 0.00 | 0.08 | 0.00 | 93 | 1005.8 | |
| 20260506021921 | 3 | 0.0 | 0.0 | 0.00 | 0.08 | 0.00 | 94 | 1006.0 | |
| 20260506020921 | 3 | 0.0 | 0.0 | 0.00 | 0.08 | 0.00 | 93 | 1006.0 | |
| 20260506015921 | 3 | 0.0 | 0.0 | 0.00 | 0.08 | 0.00 | 93 | 1006.0 |